• Processing (Info)

  • MPEC 2014-W92 : 2014 WF201

    The following Minor Planet Electronic Circular may be linked-to from your own Web pages, but must not otherwise be redistributed electronically.

    A form allowing access to any MPEC is at the bottom of this page.


    Read MPEC 2014-W91 Read MPEC 2014-W93


    M.P.E.C. 2014-W92                                Issued 2014 Nov. 24, 19:30 UT
    
         The Minor Planet Electronic Circulars contain information on unusual
             minor planets and routine data on comets.  They are published
       on behalf of Commission 20 of the International Astronomical Union by the
              Minor Planet Center, Smithsonian Astrophysical Observatory,
                              Cambridge, MA 02138, U.S.A.
    
                 Prepared using the Tamkin Foundation Computer Network
    
                                  MPC@CFA.HARVARD.EDU
                URL https://www.minorplanetcenter.net/    ISSN 1523-6714
    
                                      2014 WF201
    
    Observations:
         K14WK1F* C2014 11 23.19376 03 54 57.51 -07 07 08.7          16.6 VqEW092703
         K14WK1F  C2014 11 23.20378 03 54 54.04 -07 00 54.8          17.4 VqEW092703
         K14WK1F  C2014 11 23.20879 03 54 52.32 -06 57 49.4          16.9 VqEW092703
         K14WK1F  C2014 11 23.30308 03 54 17.18 -05 58 45.7          17.2 VqEW092703
         K14WK1F  C2014 11 23.30520 03 54 16.41 -05 57 25.6          17.2 VqEW092703
         K14WK1F  C2014 11 23.30730 03 54 15.62 -05 56 06.0          17.5 VqEW092703
         K14WK1F  C2014 11 23.30943 03 54 14.74 -05 54 45.9          17.1 VqEW092703
         K14WK1F  C2014 11 23.31155 03 54 13.94 -05 53 25.8          17.3 VqEW092703
         K14WK1F  C2014 11 23.44447 03 53 27.24 -04 29 37.4          17.7 VqEW092703
         K14WK1F  C2014 11 23.44768 03 53 26.37 -04 27 35.6          17.1 VqEW092703
         K14WK1F  C2014 11 23.45095 03 53 25.40 -04 25 31.8          17.8 VqEW092703
         K14WK1F  C2014 11 23.45414 03 53 24.40 -04 23 31.5          17.8 VqEW092703
         K14WK1F  C2014 11 23.45733 03 53 23.42 -04 21 33.2          17.1 VqEW092703
         K14WK1F  C2014 11 23.56819 03 53 37.40 -03 12 19.7          17.7 VqEW092900
         K14WK1F  C2014 11 23.57091 03 53 36.44 -03 10 37.2          17.6 VqEW092900
         K14WK1F  C2014 11 23.57363 03 53 35.44 -03 08 54.6          17.4 VqEW092900
         K14WK1F  C2014 11 23.86953 03 52 45.70 -00 04 39.6                qEW092246
         K14WK1F  C2014 11 23.87015 03 52 45.48 -00 04 16.3                qEW092246
         K14WK1F  C2014 11 23.87032 03 52 45.43 -00 04 09.6                qEW092246
         K14WK1F  C2014 11 23.87052 03 52 45.38 -00 04 02.3                qEW092246
         K14WK1F  C2014 11 23.87071 03 52 45.31 -00 03 54.9                qEW092246
         K14WK1F  C2014 11 23.87088 03 52 45.24 -00 03 48.7                qEW092246
         K14WK1F  C2014 11 23.87238 03 52 44.79 -00 02 52.4                qEW092246
         K14WK1F  C2014 11 23.87264 03 52 44.71 -00 02 42.7                qEW092246
         K14WK1F  C2014 11 23.87288 03 52 44.63 -00 02 33.5                qEW092246
         K14WK1F  C2014 11 23.87328 03 52 44.50 -00 02 18.8                qEW092246
         K14WK1F  C2014 11 23.87352 03 52 44.42 -00 02 09.7                qEW092246
         K14WK1F  C2014 11 23.87378 03 52 44.31 -00 01 59.6                qEW092246
         K14WK1F KC2014 11 23.94911103 52 25.80 +00 44 51.9                qEW092J95
         K14WK1F KC2014 11 23.95164003 52 24.99 +00 46 26.5                qEW092J95
         K14WK1F KC2014 11 23.95402403 52 24.23 +00 47 56.1          17.3 RqEW092J95
         K14WK1F KC2014 11 23.98694 03 52 12.98 +01 08 17.3          17.4 VqEW092Z99
         K14WK1F KC2014 11 23.99971 03 52 08.93 +01 16 15.8          17.7 VqEW092Z99
         K14WK1F KC2014 11 24.01006 03 52 05.64 +01 22 43.4          17.3 VqEW092Z99
         K14WK1F KC2014 11 24.10704 03 51 29.98 +02 24 01.6          17.2  qEW092104
         K14WK1F KC2014 11 24.10980 03 51 29.22 +02 25 44.3          17.2  qEW092104
         K14WK1F KC2014 11 24.11256 03 51 28.46 +02 27 26.9          17.3  qEW092104
         K14WK1F  C2014 11 24.11487 03 51 54.92 +02 40 30.5          16.6 RoEW092844
         K14WK1F  C2014 11 24.11975 03 51 53.15 +02 43 33.0          17.1 RoEW092844
         K14WK1F  C2014 11 24.12137 03 51 52.52 +02 44 32.2          16.7 RoEW092844
         K14WK1F  C2014 11 24.12300 03 51 51.96 +02 45 33.7          16.2 RoEW092844
         K14WK1F  C2014 11 24.12462 03 51 51.29 +02 46 34.0          16.5 RoEW092844
         K14WK1F  C2014 11 24.12626 03 51 50.69 +02 47 35.3          16.9 RoEW092844
         K14WK1F  C2014 11 24.79486 03 50 08.43 +09 22 33.8          16.4 RqEW092C23
         K14WK1F  C2014 11 24.79607 03 50 08.11 +09 23 16.6          16.3 RqEW092C23
         K14WK1F  C2014 11 24.79687 03 50 07.94 +09 23 46.2          16.3 RqEW092C23
         K14WK1F  C2014 11 24.79808 03 50 07.61 +09 24 29.3          16.1 RqEW092C23
         K14WK1F  C2014 11 24.79888 03 50 07.43 +09 24 58.1          16.4 RqEW092C23
    
    Observer details:
    104 San Marcello Pistoiese.  Observers P. Bacci, A. Antonacci. A. DePieri.
        Measurers P. Bacci, L. Tesi, G. Fagioli.  0.60-m f/4 reflector + CCD.
    246 Klet Observatory-KLENOT.  Observers J. Ticha, M. Tichy, M. Kocer.
        Measurer M. Tichy.  1.06-m KLENOT Telescope + CCD.
    703 Catalina Sky Survey.  Observers R. E. Hill, R. G. Matheny.  Measurers
        E. J. Christensen, A. R. Gibbs, A. D. Grauer, R. E. Hill, J. A. Johnson,
        R. A. Kowalski, R. G. Matheny, S. M. Larson, F. C. Shelly.  0.68-m Schmidt
        + CCD.
    844 Los Molinos.  Observers R. Salvo, L. Almenares, S. Roland, D. Fernandez.
    900 Moriyama.  Observer Y. Ikari.  0.26-m f/7.0 reflector + CCD.
    C23 Olmen.  Observer A. Diepvens.  0.20-m f/9 refractor + CCD.
    J95 Great Shefford.  Observer P. Birtwhistle.  0.40-m f/6.0 Schmidt-Cassegrain
        + CCD.
    Z99 Clixby Observatory, Cleethorpes.  Observer A. Mickleburgh.  0.36-m f/8
        Schmidt-Cassegrain + CCD.
    
    Orbital elements:
    2014 WF201                                               Earth MOID = 0.0161 AU
    Epoch 2014 Dec. 9.0 TT = JDT 2457000.5                  MPC
    M  38.71565              (2000.0)            P               Q
    n   0.84436344     Peri.  325.74376     +0.86901907     -0.47680691
    a   1.1086210      Node    63.26422     +0.48060197     +0.74998619
    e   0.1092902      Incl.    8.50863     +0.11759085     +0.45844944
    P   1.17           H   25.1           G   0.15           U   5
    Residuals in seconds of arc
    141123 703  0.2+  0.8+    141123 246  0.2+  0.1-    141123 Z99  0.1+  0.2+
    141123 703  0.1-  0.1+    141123 246  0.2-  0.1-    141124 Z99  0.0   0.4+
    141123 703 (0.4+  2.0-)   141123 246  0.1-  0.2+    141124 104  0.5+  0.1+
    141123 703  0.3-  0.4-    141123 246  0.1+  0.0     141124 104  0.5+  0.1+
    141123 703  0.3+  0.3-    141123 246  0.1-  0.3+    141124 104  0.5+  0.1+
    141123 703  0.5+  0.1+    141123 246  0.3-  0.1+    141124 844  0.3-  0.2+
    141123 703  0.6-  0.1-    141123 246  0.1+  0.0     141124 844  0.1+  0.7+
    141123 703  0.5-  0.1+    141123 246  0.1+  0.0     141124 844  0.4-  0.5-
    141123 703  0.8-  0.1+    141123 246  0.0   0.2+    141124 844  0.2+  0.2+
    141123 703  0.6+  0.2+    141123 246  0.0   0.2-    141124 844  0.9-  0.1+
    141123 703  0.6+  0.1+    141123 246  0.1-  0.1-    141124 844  0.8-  0.2+
    141123 703  0.4-  0.5-    141123 246  0.5-  0.2+    141124 C23  0.2+  0.3+
    141123 703 (1.2-  3.1-)   141123 J95  0.1+  0.0     141124 C23  0.2-  0.5-
    141123 900  0.3-  0.3-    141123 J95  0.1+  0.2-    141124 C23  0.2+  0.3+
    141123 900  0.3+  0.3-    141123 J95  0.2+  0.0     141124 C23  0.3-  0.2-
    141123 900  0.3+  0.3-    141123 Z99  0.1-  0.1-    141124 C23  0.1-  0.2-
    
    Ephemeris:
    2014 WF201               a,e,i = 1.11, 0.11, 9                   q = 0.9875
    Date    TT    R. A. (2000) Decl.     Delta      r     Elong.  Phase     V
    2014 10 25    05 57 56.4 -82 15 00   0.08310 0.9864    82.0    93.2    23.0
    ...
    2014 11 09    04 43 14.2 -72 14 11   0.04464 0.9910    89.2    88.2    21.4
    ...
    2014 11 17    04 14 54.9 -53 18 56   0.02481 0.9964   107.1    71.5    19.6
    ...
    2014 11 23    03 55 14.5 -09 02 59   0.01609 1.0017   150.7    28.8    17.4
    2014 11 24    03 52 10.7 +01 23 07   0.01610 1.0027   160.9    18.8    17.1
    2014 11 25    03 49 12.2 +11 29 20   0.01664 1.0037   170.4     9.5    16.8
    ...
    2014 12 01    03 33 50.2 +49 35 19   0.02748 1.0101   150.2    29.0    18.6
    ...
    2014 12 09    03 21 26.0 +65 06 32   0.04899 1.0200   134.6    43.4    20.3
    ...
    2014 12 24    03 25 46.4 +71 32 39   0.09304 1.0419   126.7    49.2    21.9
    
    A. U. Tomatic                (C) Copyright 2014 MPC           M.P.E.C. 2014-W92
    

    Read MPEC 2014-W91 Read MPEC 2014-W93


    MPEC number:

    Enter an MPEC number in one of the following forms:

    • 1997-B01 (the full form)
    • J97B01 (the packed version of the full form)
    • B01 (the abbreviated form)